Regional Weather Roundup
Issued by NWS Albany, NY

Home | Current Version | Previous Version | Text Only | Print | Product List | Glossary On
Versions: 1 2 3 4 5 6 7 8 9 10 11 12 13 14 15 16 17 18 19 20 21 22 23 24 25 26 27 28
000
ASUS41 KALY 310610
RWRALY

NEW YORK STATE HOURLY WEATHER ROUNDUP
NATIONAL WEATHER SERVICE ALBANY NY
200 AM EDT SAT JUL 31 2021

NOTE: "FAIR" INDICATES FEW OR NO CLOUDS BELOW 12,000 FEET WITH NO
SIGNIFICANT WEATHER AND/OR NO OBSTRUCTIONS TO VISIBILITY.

NYZ032-033-038>043-046>054-057>066-NYZ062>081-082-084-310700-
EAST


CITY           SKY/WX    TMP DP  RH WIND       PRES   REMARKS
ALBANY         PTCLDY    51  50  96 W3        29.96F
GLENS FALLS    CLEAR     54  45  71 NW8       29.93F
POUGHKEEPSIE   CLEAR     53  50  89 E3        29.97F
NEWBURGH       CLEAR     55  50  82 NW8       29.99S
MONTGOMERY     CLEAR     52  49  89 CALM      29.98F
WHITE PLAINS   CLEAR     59  47  64 N6        29.97S
ISLIP          CLEAR     64  48  56 N3        29.95S
NEW YORK CITY  CLEAR     67  47  48 N13       29.95S
CENTRAL PARK   CLEAR     65  47  52 VRB7      29.99F
$$

NYZ005>009-017-018-044>046-055-056-310700-
CENTRAL


CITY           SKY/WX    TMP DP  RH WIND       PRES   REMARKS
FULTON           N/A     52  49  89 CALM      30.00S
SYRACUSE       CLOUDY    60  45  57 CALM      30.00S
ROME           CLOUDY    56  45  66 NW5       30.00R
ELMIRA         CLEAR     54  50  86 W6        30.03S
BINGHAMTON     CLEAR     51  48  89 W7        30.01S
MONTICELLO     CLEAR     51  48  89 NW7       30.01F
$$

NYZ026>034-041>043-087-310700-
NORTH


CITY           SKY/WX    TMP DP  RH WIND       PRES   REMARKS
WATERTOWN      CLEAR     46  44  93 CALM      29.99S
FORT DRUM      NOT AVBL
OGDENSBURG     FAIR      52  46  82 CALM      29.95S
MASSENA        CLEAR     49  45  86 SW6       29.96F
SARANAC LAKE   PTCLDY    44  43  96 CALM      29.96S
PLATTSBURGH    CLEAR     53  45  74 SW3       29.91S
$$

NYZ001>004-010>016-019>021-085-310700-
WEST


CITY           SKY/WX    TMP DP  RH WIND       PRES   REMARKS
NIAGARA FALLS  CLEAR     55  49  80 W3        30.04F
BUFFALO          N/A     59  49  69 NW3       30.05S
DUNKIRK        PTCLDY    58  54  86 CALM      30.05F
JAMESTOWN      PTCLDY    54  50  86 MISG      30.07F
WELLSVILLE     CLOUDY    51  48  89 CALM      30.07S
ROCHESTER      PTCLDY    53  50  89 SW3       30.03F
PENN YAN       PTCLDY    56  49  77 W7        30.03S
$$

             KEY
       WCI = WIND CHILL INDEX
       VSB = VISIBILITY
       HX  = HEAT INDEX
$$



USA.gov is the U.S. government's official web portal to all federal, state and local government web resources and services.